sat.trackr.live / text

‹ back to catalog

INMARSAT 5-F1

NORAD 39476 · 2013-073A

PAYLOAD ACTIVE UNKNOWN

§ Identity

Operator
Country
IM
Launch date
2013-12-08
Launch site
TYMSC
Launch vehicle
Mass (kg)
RCS (m²)
7.17

Purposes: comms

External: N2YO · Heavens-Above · Gunter

§ Orbital elements

Epoch: 2026-05-24T22:54:32.541120Z

Period
1,436.09 min
Inclination
0.0156°
Eccentricity
0.0000412
Mean motion
1.00272076 rev/d
Perigee alt
35,784.8 km
Apogee alt
35,788.3 km
Semi-major
42,164.7 km
B*
0.0000e+0
RAAN
344.8237°
Arg perigee
334.0868°
Mean anomaly
329.9068°
Rev number
4,534

§ Raw data

INMARSAT 5-F11 39476U 13073A   26144.95454330  .00000025  00000+0  00000+0 0  99982 39476   0.0156 344.8237 0000412 334.0868 329.9068  1.00272076 45341

JSON: /api/v1/satellites/39476 · /tle

For live sub-satellite position, see the globe view (requires WebGL).

§ Visibility from observer

Set your observer location to see the next 7 days of passes ≥ 10°. The values pass through the URL so the page stays shareable.

No JS? Fill the form by hand. The geolocation button needs JavaScript.